Overview Statistics Trail Chart Weather Telemetry Raw packets
 

This is the latest recevied weather packets stored in our database for station/object K3RUP-1. If no packets are shown the sender has not sent any weather packets the latest 10 day(s).

<< 8 9 10 11 12 13 14 >>
Time Temp. Humidity Pressure Rain* Wind** Luminosity Snow
1788636893 26.67° C 66% 1009.9 hPa 0 mm - 128 W/m² -
1788636588 27.22° C 64% 1010.1 hPa 0 mm - 108 W/m² -
1788636283 27.22° C 65% 1010.2 hPa 0 mm - 120 W/m² -
1788635978 27.78° C 66% 1010 hPa 0 mm - 485 W/m² -
1788635677 27.22° C 67% 1010 hPa 0 mm - 314 W/m² -
1788635372 26.67° C 66% 1010 hPa 0 mm - 225 W/m² -
1788635069 27.22° C 66% 1009.9 hPa 0 mm - 449 W/m² -
1788634769 27.22° C 65% 1010.2 hPa 0 mm - 520 W/m² -
1788634464 26.67° C 70% 1010.5 hPa 0 mm - 320 W/m² -
1788634162 26.11° C 65% 1010.5 hPa 0 mm - 321 W/m² -
1788633857 26.11° C 66% 1010.6 hPa 0 mm - 359 W/m² -
1788633556 26.11° C 68% 1010.8 hPa 0 mm - 244 W/m² -
1788633251 26.67° C 66% 1010.5 hPa 0 mm - 243 W/m² -
1788632946 26.67° C 65% 1010.9 hPa 0 mm - 291 W/m² -
1788632645 26.11° C 65% 1010.8 hPa 0 mm - 283 W/m² -
1788632341 26.67° C 68% 1011 hPa 0 mm - 218 W/m² -
1788632041 26.67° C 64% 1010.8 hPa 0 mm - 267 W/m² -
1788631740 27.22° C 64% 1011.1 hPa 0 mm - 294 W/m² -
1788631449 26.67° C 67% 1010.7 hPa 0 mm - 398 W/m² -
1788631130 26.67° C 67% 1011.1 hPa 0 mm - 382 W/m² -
1788630824 26.11° C 67% 1011 hPa 0 mm - 370 W/m² -
1788630519 26.11° C 70% 1010.9 hPa 0 mm - 299 W/m² -
1788630215 26.11° C 68% 1011.2 hPa 0 mm - 357 W/m² -
1788629911 26.11° C 67% 1011.1 hPa 0 mm - 223 W/m² -
1788629607 26.11° C 70% 1011.2 hPa 0 mm - 186 W/m² -

* Rain latest hour (hover to see other rain measurements)
** Current wind speed in m/s (hover to see current wind gust speed)